Location: Phoenix
(33.4480°N, 112.0730°W)
Time: 10:24:41
(UTC-07:00)

Daily predictions for brighter satellites

Satellite Brightness Start Highest point End
(mag) Time Altitude Azimuth Time Altitude Azimuth Time Altitude Azimuth
Cosmos 1908 3.7 18:05:44 10° SSE 18:09:24 40° E 18:13:04 10° NNE
SL-16 R/B 3.3 18:05:00 10° NNW 18:10:29 52° WSW 18:15:56 10° S
RESURS DK-1 2.4 18:10:11 10° NNW 18:14:15 55° ENE 18:18:17 10° SE
Cosmos 1626 2.1 18:11:11 10° N 18:14:56 85° E 18:18:39 10° S
COSMO-SKYMED 1 2.7 18:12:34 10° NNE 18:16:50 54° E 18:21:04 10° S
Cosmos 2366 rocket 4.4 18:12:20 10° SSW 18:18:32 69° W 18:24:41 10° N
Ariane Rocket 3.9 18:14:56 10° S 18:19:54 55° W 18:24:54 10° NNW
CZ-3 Stage 3 0.8 18:19:44 10° WSW 18:21:37 34° S 18:23:17 10° ESE
BREEZE-M DEB (TANK) 3.4 18:22:30 10° W 18:24:23 20° NW 18:26:02 10° NNE
Atlas Centaur 2 2.4 18:21:41 10° W 18:25:42 45° S 18:30:42 10° ESE
Cosmos 2237 Rocket 4.1 18:25:10 10° NE 18:26:01 10° NE 18:26:51 10° ENE
Cosmos 2151 2.9 18:23:25 10° N 18:27:42 88° E 18:31:55 10° S
Cosmos 2227 Rocket 3.5 18:26:06 10° SE 18:29:57 19° E 18:33:49 10° ENE
GRACE-2 3.5 18:30:22 10° S 18:32:54 71° E 18:35:28 10° N
Cosmos 2058 3.1 18:30:02 10° N 18:34:12 78° W 18:38:19 10° S
YAOGAN 1 2.7 18:30:10 10° S 18:34:28 81° WSW 18:38:49 10° NNW
Cosmos 1400 Rocket 3.8 18:31:34 10° NNW 18:35:27 51° W 18:39:15 10° S
Cosmos 1300 3.8 18:33:01 10° SE 18:36:07 24° E 18:39:13 10° NE
USA 267 4.3 18:32:24 12° ENE 18:37:01 24° ESE 18:42:07 10° S
GRACE-1 3.6 18:35:12 10° S 18:37:46 85° W 18:40:20 10° N
ALOS 2.6 18:34:48 10° SE 18:39:09 41° ENE 18:43:32 10° N
Cosmos 1269 Rocket 3.9 18:37:12 10° S 18:42:27 80° ESE 18:47:44 10° NNE
Abrixas 4.3 18:41:33 10° WNW 18:43:01 16° NNW 18:44:29 10° NNE
Cosmos 1633 Rocket 4.4 18:40:01 10° NNE 18:43:07 18° ENE 18:43:25 18° E
Cosmos 2360 Rocket 2.6 18:42:00 10° NNW 18:47:37 66° WSW 18:53:12 10° S
DMSP B5D1-3 4.4 18:42:54 10° NNE 18:48:03 73° ESE 18:53:10 10° S
Aureole 2 Rocket 3.7 18:45:23 10° N 18:48:49 27° ENE 18:50:13 22° ESE
BREEZE-M DEB (TANK) 0.9 18:48:10 10° NW 18:50:07 88° SW 18:51:17 25° SE
MOS 1 4.4 18:44:31 10° SSE 18:50:11 84° WSW 18:55:54 10° NNW
SPOT 3 Rocket 3.5 18:46:38 10° SSE 18:51:49 83° ENE 18:57:02 10° NNW
Hubble Space Telescope 2.2 18:49:52 10° SW 18:53:16 25° SSE 18:55:02 19° SE
CZ-4 R/B 3.7 18:50:15 10° SSW 18:53:55 29° W 18:57:35 10° NW
Cosmos 1934 Rocket 4.1 18:48:17 10° SSE 18:54:25 53° E 19:00:34 10° NNE
Cosmos 1821 Rocket 3.9 18:48:23 10° S 18:54:29 72° E 19:00:42 10° N
Cosmos 1000 Rocket 4.4 18:51:38 10° N 18:57:49 69° E 19:03:56 10° SSE
COSMOS 2428 2.7 18:52:54 10° NNW 18:58:33 63° ENE 19:04:10 10° SSE
Cosmos 2219 3.5 18:53:25 10° SSW 18:59:08 73° WNW 19:04:53 10° NNE
FENGYUN 3A 3.6 18:54:24 10° SSE 18:59:45 68° ENE 19:05:07 10° N
Cosmos 1452 Rocket 4.2 18:54:38 10° NNW 18:59:47 57° WSW 19:04:54 10° S
Cosmos 2221 3.3 18:55:39 10° SSW 18:59:51 55° W 19:04:08 10° N
Cosmos 2239 Rocket 4.4 18:54:18 10° S 19:00:26 81° E 19:06:36 10° N
Centaur D AC-28 3.7 18:57:09 10° SSW 19:00:37 25° SE 19:03:27 20° ESE
Centaur AC-112 3.5 18:53:05 10° WSW 19:00:44 35° S 19:02:22 21° SE
Cosmos 2333 Rocket 2.9 18:56:18 10° N 19:01:28 33° ENE 19:03:41 25° ESE
Delta 2 Rocket 3.0 18:58:29 10° WNW 19:02:20 70° N 19:03:28 40° E
Iridium 4 Rocket 3.7 18:57:34 10° S 19:03:04 87° W 19:08:56 10° N
Cosmos 494 Rocket 4.1 19:01:27 10° S 19:06:21 49° ESE 19:10:55 12° NNE
Cosmos 2098 Rocket 3.5 19:02:47 10° S 19:07:05 77° W 19:12:39 10° N
Cosmos 2297 Rocket 2.7 19:02:06 10° SSE 19:07:08 34° ESE 19:08:58 28° ENE
Cosmos 921 Rocket 4.3 19:05:47 10° NNW 19:09:57 42° W 19:14:02 10° S
Cosmos 1726 2.7 19:09:41 10° SSW 19:13:19 57° W 19:16:58 10° N
Meteor 2-10 3.8 19:09:45 10° S 19:14:45 76° E 19:19:51 10° NNE
Cosmos 1110 Rocket 4.4 19:11:34 10° N 19:16:30 38° ENE 19:16:55 37° E
Cosmos 2082 4.0 19:11:17 10° S 19:16:37 41° ESE 19:18:17 33° ENE
ASTRO E2 3.7 19:14:05 10° W 19:17:48 38° SSW 19:18:58 30° SSE
Meteor 2-2 Rocket 4.2 19:12:41 10° S 19:18:16 59° E 19:23:48 10° NNE
FengYun 1-2 T 4.1 19:18:01 10° SSE 19:23:26 64° ENE 19:28:52 10° N
Cosmos 1605 Rocket 3.8 19:22:53 10° S 19:28:56 69° E 19:34:59 10° NNE
Cosmos 2123 Rocket 3.9 19:23:22 10° N 19:29:37 70° E 19:35:52 10° SSE
Cosmos 2219 Rocket 2.0 19:29:19 10° NNW 19:34:55 79° ENE 19:37:22 35° SSE
Cosmos 2251 Rocket 3.4 19:30:36 10° S 19:35:50 69° ESE 19:37:16 47° NE
DELTA 2 R/B (1) 3.7 19:35:56 10° WNW 19:41:29 67° SSW 19:42:41 52° SSE
BREEZE-M R/B 4.1 19:41:05 10° W 19:42:53 28° NW 19:42:53 28° NW
Sich 1 3.9 19:47:54 10° NNW 19:52:08 50° W 19:56:03 12° SSW
H-2A R/B 3.9 19:54:20 42° WNW 19:54:20 42° WNW 19:57:27 10° NNW
CZ-4C R/B 4.3 19:50:17 10° W 19:54:20 22° NW 19:58:47 10° N
NOSS 0 Rocket 3.7 19:48:47 10° NNW 19:54:58 84° ENE 19:55:45 70° SE
MOS 1-B Rocket 4.1 20:00:08 56° NNE 20:00:08 56° NNE 20:04:58 10° N
Cosmos 2237 Rocket 2.8 20:05:11 10° NNW 20:09:09 47° NNW 20:09:09 47° NNW
Cosmos 2227 Rocket 3.1 20:08:09 10° SW 20:13:33 47° WNW 20:16:00 29° N
Atlas Centaur 2 3.8 20:10:31 10° WSW 20:14:02 23° SSW 20:14:02 23° SSW
Gbstr 26 Del rocket 4.0 20:11:00 10° NW 20:15:52 68° W 20:15:52 68° W
USA 267 3.3 20:19:47 70° N 20:20:17 73° NW 20:26:46 10° SW
SL-16 R/B 4.4 20:17:41 10° N 20:18:33 14° N 20:18:33 14° N
Hubble Space Telescope 3.9 20:30:14 10° WSW 20:30:24 11° WSW 20:30:24 11° WSW
Cosmos 2333 Rocket 3.9 20:40:43 10° NW 20:45:32 28° WSW 20:45:47 28° WSW
Cosmos 2297 Rocket 4.0 20:46:25 10° WSW 20:50:55 27° WNW 20:50:55 27° WNW
